Weather history for 0326

Weather History For Prescott AZ

This page updates 5 minutes after midnight. GMT -7

Station: KPRC0 Rows: 26

Return to today's weather
Year Date Temp (°F) Tmin (°F) Tmax (°F) RH% Prcp Snow Wind Gust Pres Sun Cloud
2000 2000-03-26 52.7 34.0 70.0 37 10.0 30.07 0
2001 2001-03-26 54.0 42.1 68.0 35 13.1 29.85 0
2002 2002-03-26 0.00
2003 2003-03-26 55.8 37.4 69.8 41 15.3 29.97 0
2004 2004-03-26 57.2 32 17.5 29.85 0
2005 2005-03-26 39.7 28.9 51.1 52 0.0 12.4 30.07 0
2006 2006-03-26 54.3 39.9 64.9 34 0.0 9.9 29.86 1
2007 2007-03-26 55.2 42.1 68.0 50 0.0 9.9 29.95 0
2008 2008-03-26 58.1 46.9 69.1 22 0.0 16.6 29.93 0
2009 2009-03-26 49.6 22 0.0 32.0 29.67 1
2010 2010-03-26 49.3 39.9 57.9 28 0.0 21.8 29.82 0
2011 2011-03-26 46.0 37.0 55.9 57 0.0 14.6 29.79 4
2012 2012-03-26 49.3 39.9 60.1 47 0.0 13.6 29.91 1
2013 2013-03-26 54.0 39.9 68.0 25 0.0 13.5 29.88 0
2014 2014-03-26 52.9 46.0 60.1 35 25.9 29.65
2015 2015-03-26 55.0 37.0 73.0 26 0.0 6.9 30.11 0
2016 2016-03-26 54.3 39.0 66.9 18 0.0 17.7 29.78 0
2017 2017-03-26 50.2 36.0 63.0 46 0.0 10.0 29.91 0
2018 2018-03-26 43.3 30.0 57.0 42 0.0 12.9 29.80
2019 2019-03-26 54.9 37.9 70.0 35 0.0 10.5 29.96 0
2020 2020-03-26 46.0 37.9 53.1 42 0.0 23.1 29.75 1
2021 2021-03-26 37.4 32.0 42.1 80 11.5 29.83
2022 2022-03-26 60.6 42.1 78.1 25 0.0 11.5 29.91 0
2023 2023-03-26 37.6 25.0 50.0 45 0.0 11.0 29.96 0
2024 2024-03-26 42.6 37.0 50.0 60 15.9 29.86 3
2025 2025-03-26 61.3 45.0 75.9 27 0.0 11.0 29.89 1
Average Low 38.0
Average High 62.7

Daily High / Low by Year (03/26)

Barometric Pressure by Year (03/26)

Weather data provided by Meteostat